QPF
0.00 0.00 0.00 0.00 0.00 0.00 0.00 0.00 0.00 0.00 0.00 0.00 0.00 0.00 0.00 0.00 0.00 0.00 0.01 0.01 0.01 0.01 0.00 0.00 0.00 0.00 0.00 0.00 0.00 0.00 0.00 0.00 0.00 0.00 0.00 0.01 0.01 0.01 0.01 0.01 0.01 0.01 0.01
0.00 0.00 0.00 0.00 0.00 0.00 0.00 0.00 0.00 0.00 0.00 0.00 0.00 0.00 0.00 0.00 0.00 0.01 0.01 0.01 0.01 0.00 0.00 0.00 0.00 0.00 0.00 0.00 0.00 0.00 0.00 0.00 0.00 0.00 0.00 0.00 0.00 0.01 0.01 0.01 0.01 0.02 0.03
0.00 0.00 0.00 0.00 0.00 0.00 0.00 0.00 0.00 0.00 0.00 0.00 0.00 0.00 0.00 0.00 0.01 0.01 0.01 0.00 0.00 0.00 0.00 0.00 0.00 0.00 0.00 0.00 0.00 0.00 0.00 0.00 0.00 0.00 0.00 0.00 0.00 0.00 0.00 0.00 0.01 0.01 0.02
0.00 0.00 0.00 0.00 0.00 0.00 0.00 0.00 0.00 0.00 0.00 0.00 0.00 0.00 0.00 0.00 0.01 0.01 0.00 0.00 0.00 0.00 0.00 0.00 0.00 0.00 0.00 0.00 0.00 0.00 0.00 0.00 0.00 0.00 0.00 0.00 0.00 0.01 0.00 0.00 0.00 0.00 0.00
0.00 0.00 0.00 0.00 0.00 0.00 0.00 0.00 0.00 0.00 0.00 0.00 0.00 0.00 0.00 0.00 0.00 0.00 0.00 0.00 0.00 0.00 0.00 0.00 0.00 0.00 0.00 0.00 0.00 0.00 0.00 0.00 0.00 0.00 0.00 0.00 0.00 0.01 0.01 0.00 0.00 0.00 0.00
0.00 0.00 0.00 0.00 0.00 0.00 0.00 0.00 0.00 0.00 0.00 0.00 0.00 0.00 0.00 0.00 0.00 0.00 0.00 0.00 0.00 0.00 0.00 0.00 0.00 0.00 0.00 0.00 0.00 0.00 0.00 0.00 0.00 0.00 0.00 0.00 0.01 0.02 0.01 0.00 0.00 0.00 0.00
0.00 0.00 0.00 0.00 0.00 0.00 0.00 0.00 0.00 0.00 0.00 0.00 0.00 0.00 0.01 0.01 0.01 0.00 0.00 0.00 0.00 0.00 0.00 0.00 0.00 0.00 0.00 0.00 0.00 0.00 0.00 0.00 0.00 0.00 0.00 0.00 0.00 0.02 0.01 0.01 0.00 0.00 0.00
0.00 0.00 0.00 0.00 0.00 0.00 0.00 0.00 0.00 0.00 0.00 0.00 0.00 0.00 0.01 0.01 0.01 0.00 0.00 0.00 0.00 0.00 0.00 0.00 0.00 0.00 0.00 0.00 0.00 0.00 0.00 0.00 0.00 0.00 0.00 0.00 0.00 0.01 0.01 0.01 0.01 0.00 0.01
0.00 0.00 0.00 0.00 0.00 0.00 0.00 0.00 0.00 0.00 0.00 0.00 0.00 0.01 0.01 0.01 0.01 0.01 0.01 0.00 0.00 0.00 0.00 0.00 0.00 0.00 0.00 0.00 0.00 0.00 0.00 0.00 0.00 0.00 0.00 0.00 0.00 0.00 0.00 0.00 0.00 0.00 0.00
0.00 0.00 0.00 0.00 0.00 0.00 0.00 0.00 0.00 0.00 0.00 0.00 0.01 0.01 0.02 0.02 0.02 0.01 0.01 0.00 0.00 0.00 0.00 0.00 0.00 0.00 0.00 0.00 0.00 0.00 0.00 0.00 0.00 0.00 0.00 0.00 0.00 0.00 0.00 0.00 0.00 0.00 0.00
0.00 0.00 0.00 0.00 0.00 0.00 0.00 0.00 0.01 0.01 0.01 0.01 0.01 0.01 0.02 0.02 0.01 0.01 0.00 0.00 0.00 0.00 0.00 0.00 0.00 0.00 0.00 0.00 0.00 0.00 0.00 0.00 0.00 0.00 0.00 0.00 0.00 0.00 0.00 0.00 0.00 0.00 0.00
0.00 0.00 0.00 0.00 0.00 0.00 0.00 0.00 0.01 0.01 0.01 0.01 0.01 0.01 0.01 0.01 0.01 0.01 0.00 0.00 0.00 0.00 0.00 0.00 0.00 0.00 0.00 0.00 0.00 0.00 0.00 0.00 0.00 0.00 0.00 0.00 0.00 0.00 0.00 0.00 0.00 0.00 0.00
0.00 0.00 0.00 0.00 0.00 0.00 0.00 0.00 0.01 0.01 0.01 0.01 0.02 0.01 0.01 0.01 0.01 0.00 0.00 0.00 0.00 0.00 0.00 0.00 0.00 0.00 0.00 0.00 0.00 0.00 0.00 0.00 0.00 0.00 0.00 0.00 0.00 0.00 0.00 0.00 0.00 0.00 0.00
0.00 0.00 0.00 0.00 0.00 0.00 0.00 0.00 0.00 0.01 0.01 0.01 0.02 0.02 0.02 0.02 0.01 0.01 0.00 0.00 0.00 0.00 0.00 0.00 0.00 0.00 0.00 0.00 0.00 0.00 0.00 0.00 0.00 0.00 0.00 0.00 0.00 0.00 0.00 0.00 0.00 0.00 0.00
0.00 0.00 0.00 0.00 0.00 0.00 0.00 0.00 0.00 0.00 0.01 0.01 0.02 0.02 0.03 0.03 0.02 0.01 0.00 0.00 0.00 0.00 0.00 0.00 0.00 0.00 0.00 0.00 0.00 0.00 0.00 0.00 0.00 0.00 0.00 0.00 0.00 0.00 0.00 0.00 0.00 0.00 0.00
0.00 0.00 0.00 0.00 0.00 0.00 0.00 0.00 0.00 0.00 0.01 0.01 0.02 0.03 0.03 0.03 0.02 0.02 0.01 0.01 0.00 0.00 0.00 0.00 0.00 0.00 0.00 0.00 0.00 0.00 0.00 0.00 0.00 0.00 0.00 0.00 0.00 0.00 0.00 0.00 0.00 0.00 0.00
0.00 0.00 0.00 0.00 0.00 0.00 0.00 0.00 0.00 0.00 0.01 0.02 0.03 0.03 0.04 0.03 0.03 0.02 0.01 0.01 0.01 0.00 0.00 0.00 0.00 0.00 0.00 0.00 0.00 0.00 0.00 0.00 0.00 0.00 0.00 0.00 0.00 0.00 0.00 0.00 0.00 0.00 0.00
0.00 0.00 0.00 0.00 0.00 0.00 0.00 0.00 0.00 0.00 0.01 0.02 0.03 0.04 0.04 0.04 0.03 0.02 0.02 0.02 0.01 0.01 0.01 0.01 0.00 0.00 0.00 0.00 0.00 0.00 0.00 0.00 0.00 0.00 0.00 0.00 0.00 0.00 0.00 0.00 0.00 0.00 0.00
0.00 0.00 0.00 0.00 0.00 0.00 0.00 0.00 0.00 0.00 0.01 0.02 0.02 0.03 0.03 0.04 0.04 0.03 0.03 0.03 0.02 0.02 0.01 0.01 0.01 0.01 0.00 0.00 0.00 0.00 0.00 0.00 0.00 0.00 0.00 0.00 0.00 0.00 0.00 0.00 0.00 0.00 0.00
0.00 0.00 0.00 0.00 0.00 0.00 0.00 0.00 0.00 0.00 0.00 0.01 0.01 0.02 0.02 0.02 0.02 0.03 0.03 0.03 0.03 0.02 0.02 0.02 0.01 0.01 0.00 0.00 0.00 0.00 0.00 0.00 0.00 0.00 0.00 0.00 0.00 0.00 0.00 0.00 0.00 0.00 0.00
0.00 0.00 0.00 0.00 0.00 0.00 0.00 0.00 0.00 0.00 0.00 0.00 0.00 0.01 0.01 0.01 0.01 0.02 0.02 0.02 0.03 0.03 0.02 0.02 0.02 0.01 0.01 0.00 0.00 0.00 0.00 0.00 0.00 0.00 0.00 0.00 0.00 0.00 0.00 0.00 0.00 0.00 0.00
0.00 0.00 0.00 0.00 0.00 0.00 0.00 0.00 0.00 0.00 0.00 0.00 0.00 0.00 0.00 0.00 0.00 0.01 0.01 0.01 0.01 0.02 0.02 0.02 0.02 0.02 0.01 0.01 0.00 0.00 0.00 0.00 0.00 0.00 0.00 0.00 0.00 0.00 0.00 0.00 0.00 0.00 0.00
0.00 0.00 0.00 0.00 0.00 0.00 0.00 0.00 0.00 0.00 0.00 0.00 0.00 0.00 0.00 0.00 0.00 0.00 0.00 0.00 0.01 0.01 0.01 0.01 0.01 0.01 0.01 0.01 0.00 0.00 0.00 0.00 0.00 0.00 0.00 0.00 0.00 0.00 0.00 0.00 0.00 0.00 0.00
0.00 0.00 0.00 0.00 0.00 0.00 0.00 0.00 0.00 0.00 0.00 0.00 0.00 0.00 0.00 0.00 0.00 0.00 0.00 0.00 0.00 0.00 0.00 0.00 0.00 0.00 0.01 0.00 0.00 0.00 0.00 0.00 0.00 0.00 0.00 0.00 0.00 0.00 0.00 0.00 0.00 0.00 0.00
0.00 0.00 0.00 0.00 0.00 0.00 0.00 0.00 0.00 0.00 0.00 0.00 0.00 0.00 0.00 0.00 0.00 0.00 0.00 0.00 0.00 0.00 0.00 0.00 0.00 0.00 0.00 0.00 0.00 0.00 0.00 0.00 0.00 0.00 0.00 0.00 0.00 0.00 0.00 0.00 0.00 0.00 0.00
0.00 0.00 0.00 0.00 0.00 0.00 0.00 0.00 0.00 0.00 0.00 0.00 0.00 0.00 0.00 0.00 0.00 0.00 0.00 0.00 0.00 0.00 0.00 0.00 0.00 0.00 0.00 0.00 0.00 0.00 0.00 0.00 0.00 0.00 0.00 0.00 0.00 0.00 0.00 0.00 0.00 0.00 0.00
MSLP
1017.21 1016.97 1016.88 1016.95 1017.15 1017.45 1017.79 1018.11 1018.38 1018.55 1018.66 1018.71 1018.75 1018.81 1018.94 1019.13 1019.37 1019.64 1019.89 1020.11 1020.26 1020.33 1020.35 1020.33 1020.29 1020.24 1020.21 1020.18 1020.14 1020.10 1020.04 1019.96 1019.88 1019.81 1019.76 1019.74 1019.75 1019.77 1019.80 1019.80 1019.77 1019.69 1019.58
1017.04 1016.82 1016.74 1016.83 1017.05 1017.37 1017.72 1018.07 1018.35 1018.56 1018.70 1018.80 1018.90 1019.03 1019.21 1019.45 1019.73 1020.03 1020.30 1020.52 1020.66 1020.74 1020.75 1020.72 1020.67 1020.62 1020.57 1020.51 1020.46 1020.39 1020.31 1020.23 1020.15 1020.08 1020.06 1020.06 1020.10 1020.14 1020.18 1020.19 1020.15 1020.07 1019.96
1016.81 1016.62 1016.59 1016.71 1016.96 1017.31 1017.69 1018.06 1018.38 1018.62 1018.80 1018.94 1019.08 1019.25 1019.47 1019.73 1020.03 1020.32 1020.58 1020.79 1020.92 1020.99 1021.00 1020.97 1020.93 1020.88 1020.84 1020.79 1020.73 1020.67 1020.59 1020.51 1020.44 1020.40 1020.39 1020.42 1020.48 1020.54 1020.58 1020.59 1020.55 1020.47 1020.35
1016.56 1016.44 1016.46 1016.64 1016.94 1017.32 1017.74 1018.13 1018.47 1018.74 1018.94 1019.11 1019.27 1019.46 1019.68 1019.94 1020.21 1020.48 1020.72 1020.90 1021.02 1021.08 1021.11 1021.10 1021.09 1021.07 1021.05 1021.03 1020.99 1020.94 1020.88 1020.82 1020.77 1020.75 1020.76 1020.80 1020.86 1020.93 1020.97 1020.98 1020.94 1020.86 1020.75
1016.37 1016.33 1016.42 1016.65 1017.00 1017.42 1017.86 1018.27 1018.62 1018.89 1019.11 1019.28 1019.44 1019.62 1019.82 1020.05 1020.29 1020.52 1020.73 1020.89 1021.01 1021.09 1021.14 1021.18 1021.21 1021.24 1021.26 1021.27 1021.26 1021.23 1021.20 1021.15 1021.12 1021.11 1021.13 1021.17 1021.23 1021.28 1021.32 1021.32 1021.29 1021.22 1021.12
1016.27 1016.31 1016.48 1016.77 1017.15 1017.59 1018.03 1018.44 1018.78 1019.04 1019.25 1019.41 1019.56 1019.71 1019.89 1020.09 1020.30 1020.50 1020.68 1020.84 1020.97 1021.08 1021.18 1021.27 1021.35 1021.44 1021.51 1021.55 1021.57 1021.56 1021.54 1021.51 1021.48 1021.47 1021.48 1021.51 1021.55 1021.59 1021.61 1021.61 1021.58 1021.53 1021.46
1016.33 1016.43 1016.64 1016.96 1017.36 1017.79 1018.21 1018.59 1018.90 1019.15 1019.33 1019.48 1019.62 1019.76 1019.93 1020.11 1020.29 1020.48 1020.66 1020.83 1020.98 1021.13 1021.29 1021.44 1021.58 1021.71 1021.82 1021.89 1021.93 1021.93 1021.90 1021.87 1021.83 1021.81 1021.80 1021.81 1021.82 1021.83 1021.84 1021.84 1021.82 1021.80 1021.77
1016.57 1016.69 1016.91 1017.22 1017.59 1017.97 1018.35 1018.68 1018.95 1019.17 1019.34 1019.49 1019.63 1019.78 1019.95 1020.14 1020.33 1020.52 1020.71 1020.90 1021.10 1021.30 1021.50 1021.71 1021.90 1022.07 1022.20 1022.28 1022.32 1022.31 1022.27 1022.22 1022.17 1022.12 1022.08 1022.06 1022.04 1022.03 1022.02 1022.01 1022.01 1022.02 1022.04
1016.99 1017.09 1017.27 1017.51 1017.81 1018.12 1018.41 1018.68 1018.91 1019.10 1019.27 1019.44 1019.61 1019.80 1020.00 1020.21 1020.42 1020.64 1020.86 1021.08 1021.31 1021.55 1021.80 1022.05 1022.27 1022.47 1022.61 1022.69 1022.72 1022.70 1022.64 1022.56 1022.48 1022.41 1022.34 1022.28 1022.23 1022.19 1022.16 1022.14 1022.15 1022.19 1022.26
1017.59 1017.61 1017.69 1017.84 1018.02 1018.22 1018.42 1018.61 1018.79 1018.97 1019.15 1019.36 1019.58 1019.82 1020.07 1020.32 1020.57 1020.81 1021.05 1021.30 1021.56 1021.83 1022.12 1022.39 1022.64 1022.85 1022.99 1023.07 1023.09 1023.06 1022.98 1022.89 1022.79 1022.70 1022.60 1022.51 1022.42 1022.34 1022.28 1022.25 1022.25 1022.31 1022.40
1018.31 1018.21 1018.17 1018.17 1018.22 1018.29 1018.38 1018.49 1018.63 1018.80 1019.01 1019.26 1019.54 1019.84 1020.14 1020.43 1020.71 1020.97 1021.23 1021.49 1021.77 1022.07 1022.37 1022.66 1022.93 1023.15 1023.31 1023.39 1023.41 1023.38 1023.31 1023.21 1023.11 1023.00 1022.88 1022.75 1022.63 1022.51 1022.40 1022.33 1022.31 1022.36 1022.47
1019.09 1018.85 1018.66 1018.51 1018.41 1018.34 1018.32 1018.36 1018.46 1018.63 1018.86 1019.16 1019.49 1019.84 1020.18 1020.50 1020.79 1021.06 1021.32 1021.58 1021.87 1022.17 1022.49 1022.80 1023.09 1023.33 1023.51 1023.62 1023.66 1023.65 1023.60 1023.52 1023.43 1023.31 1023.18 1023.03 1022.86 1022.69 1022.53 1022.41 1022.34 1022.36 1022.45
1019.86 1019.49 1019.15 1018.85 1018.60 1018.41 1018.29 1018.25 1018.32 1018.48 1018.74 1019.07 1019.44 1019.82 1020.17 1020.49 1020.78 1021.03 1021.27 1021.53 1021.81 1022.12 1022.46 1022.79 1023.12 1023.39 1023.61 1023.75 1023.84 1023.87 1023.86 1023.81 1023.74 1023.64 1023.51 1023.33 1023.12 1022.90 1022.67 1022.48 1022.35 1022.31 1022.36
1020.56 1020.07 1019.60 1019.17 1018.79 1018.50 1018.30 1018.21 1018.25 1018.41 1018.67 1019.02 1019.39 1019.77 1020.11 1020.41 1020.66 1020.89 1021.10 1021.34 1021.61 1021.94 1022.29 1022.66 1023.02 1023.35 1023.61 1023.81 1023.95 1024.03 1024.07 1024.07 1024.03 1023.95 1023.82 1023.63 1023.39 1023.11 1022.83 1022.56 1022.36 1022.25 1022.24
1021.16 1020.57 1020.00 1019.47 1019.00 1018.63 1018.38 1018.26 1018.28 1018.43 1018.70 1019.03 1019.39 1019.74 1020.05 1020.30 1020.51 1020.68 1020.87 1021.09 1021.36 1021.69 1022.07 1022.48 1022.88 1023.25 1023.56 1023.81 1024.00 1024.13 1024.21 1024.25 1024.25 1024.19 1024.07 1023.88 1023.63 1023.32 1022.99 1022.66 1022.39 1022.21 1022.13
1021.66 1020.99 1020.35 1019.75 1019.24 1018.84 1018.56 1018.44 1018.46 1018.61 1018.86 1019.18 1019.51 1019.81 1020.06 1020.25 1020.40 1020.53 1020.68 1020.88 1021.15 1021.49 1021.90 1022.33 1022.76 1023.16 1023.51 1023.79 1024.00 1024.16 1024.27 1024.34 1024.36 1024.32 1024.22 1024.05 1023.80 1023.49 1023.14 1022.79 1022.47 1022.24 1022.10
1022.07 1021.36 1020.68 1020.06 1019.54 1019.14 1018.88 1018.78 1018.81 1018.98 1019.23 1019.52 1019.81 1020.05 1020.24 1020.37 1020.47 1020.55 1020.67 1020.85 1021.11 1021.45 1021.86 1022.30 1022.74 1023.14 1023.48 1023.76 1023.97 1024.12 1024.23 1024.30 1024.34 1024.32 1024.25 1024.11 1023.89 1023.60 1023.27 1022.93 1022.61 1022.35 1022.18
1022.47 1021.74 1021.05 1020.44 1019.94 1019.58 1019.37 1019.31 1019.39 1019.57 1019.83 1020.10 1020.35 1020.55 1020.68 1020.75 1020.79 1020.83 1020.91 1021.07 1021.31 1021.64 1022.03 1022.44 1022.85 1023.21 1023.51 1023.74 1023.90 1024.02 1024.10 1024.15 1024.19 1024.19 1024.14 1024.04 1023.88 1023.66 1023.39 1023.09 1022.80 1022.55 1022.36
1022.91 1022.19 1021.51 1020.94 1020.49 1020.19 1020.05 1020.06 1020.19 1020.42 1020.69 1020.96 1021.18 1021.34 1021.42 1021.43 1021.42 1021.42 1021.47 1021.59 1021.80 1022.08 1022.42 1022.77 1023.11 1023.39 1023.61 1023.76 1023.85 1023.89 1023.92 1023.94 1023.95 1023.96 1023.94 1023.89 1023.80 1023.65 1023.46 1023.24 1023.01 1022.79 1022.61
1023.46 1022.75 1022.11 1021.59 1021.21 1020.99 1020.93 1021.02 1021.23 1021.50 1021.80 1022.07 1022.27 1022.39 1022.43 1022.40 1022.35 1022.31 1022.31 1022.38 1022.54 1022.75 1023.01 1023.28 1023.51 1023.69 1023.80 1023.85 1023.84 1023.80 1023.75 1023.72 1023.70 1023.70 1023.70 1023.70 1023.66 1023.59 1023.49 1023.35 1023.19 1023.03 1022.87
1024.13 1023.46 1022.87 1022.40 1022.10 1021.96 1021.99 1022.16 1022.43 1022.75 1023.08 1023.35 1023.55 1023.64 1023.65 1023.58 1023.49 1023.40 1023.36 1023.38 1023.46 1023.60 1023.76 1023.92 1024.05 1024.11 1024.11 1024.04 1023.94 1023.81 1023.69 1023.59 1023.53 1023.51 1023.50 1023.51 1023.51 1023.50 1023.46 1023.39 1023.29 1023.17 1023.05
1024.91 1024.30 1023.76 1023.36 1023.13 1023.07 1023.17 1023.40 1023.72 1024.09 1024.43 1024.71 1024.89 1024.96 1024.95 1024.85 1024.73 1024.60 1024.51 1024.47 1024.49 1024.54 1024.61 1024.67 1024.68 1024.64 1024.54 1024.38 1024.19 1023.99 1023.80 1023.64 1023.52 1023.45 1023.41 1023.40 1023.39 1023.39 1023.37 1023.33 1023.27 1023.18 1023.08
1025.76 1025.21 1024.75 1024.41 1024.23 1024.22 1024.37 1024.65 1025.00 1025.38 1025.72 1026.00 1026.17 1026.23 1026.19 1026.08 1025.94 1025.78 1025.66 1025.57 1025.52 1025.50 1025.49 1025.47 1025.40 1025.28 1025.11 1024.89 1024.64 1024.38 1024.14 1023.92 1023.74 1023.59 1023.48 1023.40 1023.34 1023.28 1023.23 1023.17 1023.10 1023.02 1022.92
1026.60 1026.13 1025.73 1025.45 1025.31 1025.34 1025.51 1025.79 1026.15 1026.52 1026.86 1027.11 1027.27 1027.32 1027.28 1027.16 1027.01 1026.84 1026.70 1026.58 1026.50 1026.43 1026.36 1026.28 1026.17 1026.01 1025.80 1025.55 1025.27 1024.99 1024.70 1024.42 1024.16 1023.93 1023.72 1023.52 1023.35 1023.19 1023.05 1022.92 1022.80 1022.69 1022.58
1027.35 1026.98 1026.64 1026.40 1026.29 1026.33 1026.50 1026.77 1027.10 1027.44 1027.75 1027.99 1028.13 1028.17 1028.13 1028.03 1027.89 1027.73 1027.59 1027.47 1027.37 1027.28 1027.19 1027.08 1026.95 1026.77 1026.56 1026.31 1026.03 1025.73 1025.41 1025.08 1024.75 1024.41 1024.07 1023.74 1023.42 1023.12 1022.85 1022.62 1022.42 1022.25 1022.11
1027.96 1027.68 1027.40 1027.20 1027.11 1027.14 1027.29 1027.53 1027.82 1028.12 1028.40 1028.61 1028.74 1028.78 1028.76 1028.68 1028.57 1028.44 1028.32 1028.21 1028.12 1028.03 1027.93 1027.82 1027.68 1027.51 1027.32 1027.08 1026.81 1026.51 1026.17 1025.79 1025.38 1024.93 1024.47 1023.99 1023.51 1023.07 1022.66 1022.30 1022.00 1021.76 1021.58
Thickness
5717 5718 5716 5713 5710 5707 5705 5703 5703 5702 5702 5702 5702 5702 5702 5702 5702 5701 5701 5702 5702 5702 5702 5703 5703 5704 5705 5706 5707 5708 5709 5710 5710 5711 5713 5714 5714 5714 5715 5716 5717 5718 5719
5724 5720 5717 5714 5711 5708 5706 5704 5702 5701 5700 5700 5700 5699 5699 5699 5699 5698 5698 5698 5698 5698 5698 5699 5699 5700 5700 5701 5702 5703 5704 5705 5706 5706 5707 5708 5709 5710 5710 5711 5712 5713 5715
5725 5722 5719 5716 5713 5710 5707 5704 5702 5700 5699 5698 5697 5697 5697 5696 5695 5695 5695 5695 5695 5695 5695 5695 5695 5696 5697 5697 5698 5699 5700 5701 5702 5702 5702 5703 5704 5705 5705 5706 5707 5709 5710
5726 5723 5720 5717 5714 5711 5708 5705 5702 5700 5699 5697 5696 5695 5694 5693 5693 5692 5692 5691 5691 5691 5692 5692 5692 5692 5693 5693 5694 5695 5696 5697 5698 5698 5698 5698 5699 5700 5700 5701 5702 5703 5704
5725 5723 5720 5717 5714 5711 5708 5705 5702 5700 5699 5697 5695 5694 5693 5691 5690 5689 5688 5688 5688 5688 5688 5688 5688 5688 5689 5689 5690 5691 5692 5693 5695 5695 5694 5694 5695 5695 5695 5696 5696 5697 5698
5723 5721 5718 5716 5713 5710 5707 5704 5701 5699 5698 5696 5694 5693 5691 5690 5688 5687 5686 5685 5684 5684 5684 5684 5684 5684 5684 5685 5686 5687 5688 5689 5690 5690 5689 5689 5690 5690 5691 5691 5691 5691 5692
5720 5718 5715 5713 5711 5708 5705 5702 5700 5697 5696 5694 5692 5691 5689 5688 5686 5684 5683 5682 5681 5681 5680 5679 5679 5679 5679 5680 5681 5682 5683 5683 5684 5684 5684 5684 5685 5685 5685 5686 5686 5686 5687
5718 5715 5713 5710 5708 5706 5703 5701 5698 5696 5693 5691 5690 5688 5687 5686 5684 5682 5680 5679 5678 5677 5676 5676 5675 5675 5675 5675 5676 5677 5678 5678 5678 5679 5679 5679 5679 5680 5680 5680 5681 5682 5682
5714 5712 5710 5708 5705 5703 5701 5699 5696 5694 5691 5689 5687 5686 5684 5683 5682 5680 5678 5676 5675 5673 5673 5672 5671 5670 5670 5670 5671 5672 5673 5673 5673 5673 5673 5673 5674 5675 5675 5675 5676 5677 5677
5709 5707 5706 5704 5702 5700 5698 5696 5694 5691 5689 5687 5685 5683 5682 5680 5679 5677 5675 5673 5671 5670 5668 5667 5666 5665 5665 5664 5665 5666 5667 5668 5668 5668 5668 5668 5669 5670 5670 5670 5671 5671 5672
5701 5700 5700 5700 5700 5698 5696 5694 5691 5688 5686 5684 5682 5680 5678 5677 5675 5673 5671 5669 5667 5665 5663 5662 5661 5660 5659 5658 5658 5659 5660 5661 5662 5662 5662 5663 5664 5664 5665 5665 5665 5666 5667
5690 5692 5694 5695 5696 5695 5694 5691 5688 5686 5683 5681 5679 5676 5674 5672 5671 5669 5667 5665 5662 5660 5658 5656 5655 5654 5653 5652 5652 5652 5653 5654 5655 5655 5656 5657 5658 5659 5660 5660 5660 5661 5661
5678 5682 5686 5689 5691 5692 5691 5689 5686 5683 5680 5677 5675 5673 5671 5668 5666 5663 5661 5659 5657 5655 5653 5651 5649 5648 5647 5646 5645 5645 5645 5646 5647 5648 5649 5650 5652 5653 5654 5655 5655 5655 5655
5672 5676 5680 5684 5687 5688 5688 5686 5683 5679 5676 5673 5671 5669 5667 5664 5661 5658 5656 5654 5652 5651 5648 5645 5643 5642 5641 5640 5639 5638 5638 5638 5639 5640 5642 5643 5644 5646 5647 5648 5649 5649 5650
5665 5669 5674 5680 5683 5684 5683 5681 5677 5674 5671 5669 5667 5665 5663 5660 5657 5653 5651 5649 5647 5645 5643 5641 5638 5636 5635 5633 5633 5632 5632 5631 5632 5632 5634 5635 5636 5638 5640 5641 5643 5643 5644
5656 5661 5667 5673 5677 5679 5677 5674 5671 5667 5665 5663 5661 5659 5658 5656 5653 5649 5646 5643 5641 5639 5638 5636 5634 5631 5629 5627 5626 5626 5625 5625 5625 5626 5626 5627 5628 5630 5631 5633 5635 5636 5637
5647 5652 5658 5665 5669 5671 5669 5666 5662 5659 5656 5654 5652 5651 5650 5648 5646 5643 5640 5637 5634 5632 5630 5628 5626 5623 5622 5620 5619 5618 5618 5618 5618 5619 5619 5620 5620 5621 5623 5624 5626 5628 5629
5638 5643 5648 5653 5657 5659 5658 5655 5651 5647 5644 5641 5639 5639 5638 5637 5637 5634 5631 5628 5625 5623 5620 5618 5616 5613 5612 5611 5610 5609 5609 5610 5610 5611 5612 5612 5613 5613 5614 5615 5617 5619 5621
5628 5633 5638 5642 5644 5645 5644 5641 5637 5633 5629 5625 5624 5622 5622 5622 5622 5620 5617 5615 5613 5610 5607 5605 5603 5601 5600 5599 5598 5598 5599 5600 5602 5603 5605 5605 5605 5605 5605 5605 5607 5609 5611
5617 5622 5626 5630 5631 5632 5631 5628 5623 5618 5613 5609 5606 5604 5605 5604 5604 5603 5601 5599 5597 5595 5592 5590 5588 5586 5585 5585 5585 5587 5588 5590 5592 5594 5596 5597 5597 5596 5595 5595 5596 5598 5600
5607 5611 5613 5615 5616 5618 5616 5612 5606 5599 5595 5592 5588 5587 5587 5586 5586 5585 5583 5581 5580 5577 5575 5574 5572 5571 5569 5568 5570 5574 5577 5579 5581 5583 5584 5584 5585 5584 5584 5584 5584 5586 5587
5592 5595 5597 5598 5599 5600 5599 5594 5589 5583 5576 5572 5570 5569 5568 5567 5566 5565 5563 5562 5560 5560 5558 5557 5556 5554 5552 5551 5551 5555 5560 5564 5566 5569 5570 5571 5572 5572 5572 5572 5573 5574 5575
5575 5577 5580 5580 5581 5581 5581 5579 5574 5568 5561 5557 5552 5549 5546 5546 5545 5544 5543 5542 5541 5540 5538 5537 5537 5537 5535 5534 5533 5534 5537 5542 5544 5553 5554 5556 5557 5559 5561 5562 5564 5565 5565
5558 5559 5561 5562 5562 5562 5562 5561 5557 5549 5540 5532 5529 5528 5527 5526 5524 5523 5522 5521 5519 5518 5516 5516 5516 5516 5516 5516 5516 5514 5514 5516 5521 5532 5539 5541 5543 5545 5548 5549 5551 5553 5554
5541 5542 5543 5544 5543 5541 5541 5539 5535 5528 5520 5514 5512 5510 5508 5506 5504 5502 5500 5499 5497 5495 5494 5494 5495 5495 5495 5494 5494 5496 5497 5498 5499 5503 5518 5526 5527 5529 5533 5536 5539 5541 5543
5525 5524 5525 5525 5522 5520 5519 5517 5513 5507 5501 5498 5493 5490 5487 5484 5482 5480 5478 5476 5474 5472 5471 5471 5471 5472 5472 5472 5472 5474 5475 5478 5480 5481 5491 5504 5511 5516 5519 5523 5526 5529 5532